Weather History for KFDK - February, 2014

Change the Weather History Date:

Saturday, February 15, 2014

  Actual Average (KHGR) Record (KHGR)
Temperature  
Mean Temperature 32 °F 34 °F  
Max Temperature 37 °F 41 °F - ()
Min Temperature 28 °F 26 °F - ()
Degree Days  
Heating Degree Days 32 32  
Month to date heating degree days 488  
Since 1 July heating degree days 3512  
Cooling Degree Days 0 0  
Month to date cooling degree days 0  
Year to date cooling degree days 0  
Moisture  
Dew Point 27 °F    
Average Humidity 80    
Maximum Humidity 100    
Minimum Humidity 55    
Precipitation  
Precipitation 0.00 in 0.09 in - ()
Month to date precipitation 1.38  
Year to date precipitation 4.06  
Sea Level Pressure  
Sea Level Pressure 29.80 in    
Wind  
Wind Speed 7 mph (North)    
Max Wind Speed 18 mph    
Max Gust Speed 32 mph    
Visibility 8 miles    
Events Snow    
T = Trace of Precipitation, MM = Missing Value Source: NWS Daily Summary

Daily Weather History Graph

Daily Weather History Graph

Search for Another Location

Airport or City:

Trip Planner

Search our weather history database for the weather conditions in past years. The results will help you decide how hot, cold, wet, or windy it might be!

Date:

Astronomy

Feb. 15, 2014 Rise Set
Actual Time 7:01 AM EST 5:46 PM EST
Civil Twilight 6:34 AM EST 6:13 PM EST
Nautical Twilight 6:02 AM EST 6:45 PM EST
Astronomical Twilight 5:31 AM EST 7:16 PM EST
Moon 6:43 PM EST (2/15) 6:59 AM EST (2/15)
Length of Visible Light 11h 39m
Length of Day
10h 44m
Full, 100% of the Moon is Illuminated
Feb 15
Full
Feb 22
Last Quarter
Mar 1
New
Mar 8
First Quarter
Mar 16
Full

Hourly Weather History & Observations

Time (EST) Temp. Windchill Dew Point Humidity Pressure Visibility Wind Dir Wind Speed Gust Speed Precip Events Conditions
12:05 AM 33.8 °F 30.8 °F 32.0 °F 93% 29.76 in 10.0 mi NE 3.5 mph - N/A   Overcast
12:25 AM 33.8 °F 30.8 °F 30.2 °F 87% 29.77 in 10.0 mi NNW 3.5 mph - N/A   Overcast
12:45 AM 35.6 °F 30.7 °F 30.2 °F 81% 29.77 in 10.0 mi NNW 5.8 mph - N/A   Overcast
1:05 AM 35.6 °F 28.6 °F 32.0 °F 87% 29.77 in 10.0 mi North 9.2 mph - N/A   Overcast
1:25 AM 35.6 °F 29.9 °F 32.0 °F 87% 29.76 in 10.0 mi NNE 6.9 mph - N/A   Overcast
1:45 AM 35.6 °F 29.9 °F 32.0 °F 87% 29.75 in 10.0 mi North 6.9 mph - N/A   Overcast
2:05 AM 33.8 °F 29.6 °F 32.0 °F 93% 29.75 in 10.0 mi NNE 4.6 mph - N/A   Overcast
2:25 AM 33.8 °F 29.6 °F 32.0 °F 93% 29.74 in 10.0 mi North 4.6 mph - N/A   Overcast
2:45 AM 33.8 °F 29.6 °F 32.0 °F 93% 29.72 in 7.0 mi North 4.6 mph - N/A   Overcast
3:05 AM 33.8 °F 28.6 °F 32.0 °F 93% 29.71 in 7.0 mi North 5.8 mph - N/A   Overcast
3:25 AM 33.8 °F 28.6 °F 32.0 °F 93% 29.71 in 7.0 mi NNE 5.8 mph - N/A   Overcast
3:45 AM 33.8 °F 27.7 °F 32.0 °F 93% 29.71 in 7.0 mi NNE 6.9 mph - N/A   Overcast
4:05 AM 32.0 °F 25.6 °F 32.0 °F 100% 29.71 in 5.0 mi North 6.9 mph - N/A   Overcast
4:25 AM 32.0 °F 25.6 °F 32.0 °F 100% 29.70 in 5.0 mi NNE 6.9 mph - N/A   Overcast
4:45 AM 32.0 °F 24.2 °F 32.0 °F 100% 29.70 in 5.0 mi North 9.2 mph - N/A   Overcast
5:05 AM 32.0 °F 24.2 °F 32.0 °F 100% 29.69 in 5.0 mi North 9.2 mph - N/A   Overcast
5:25 AM 32.0 °F 23.0 °F 32.0 °F 100% 29.67 in 5.0 mi North 11.5 mph - N/A   Overcast
5:35 AM 32.0 °F 25.6 °F 32.0 °F 100% 29.67 in 5.0 mi NNE 6.9 mph - N/A   Overcast
6:45 AM 33.8 °F 29.6 °F 33.8 °F 100% 29.68 in 10.5 mi NNE 4.6 mph - N/A Snow Light Snow
7:48 AM 32.0 °F 24.8 °F 32.0 °F 100% 29.68 in 2.8 mi NNE 8.1 mph - N/A Snow Snow
9:45 AM 33.8 °F 27.0 °F 33.8 °F 100% 29.69 in 1.2 mi North 8.1 mph - N/A Snow Light Snow
10:45 AM 33.8 °F 25.8 °F 33.8 °F 100% 29.71 in 1.8 mi North 10.4 mph - N/A   Overcast
11:45 AM 35.6 °F 27.5 °F 35.6 °F 100% 29.70 in 1.8 mi North 11.5 mph - N/A   Overcast
12:30 PM 35.6 °F 28.6 °F 33.8 °F 93% 29.69 in 6.0 mi North 9.2 mph - N/A   Overcast
1:48 PM 37.4 °F 27.5 °F 30.2 °F 75% 29.70 in 10.0 mi North 18.4 mph 26.5 mph N/A   Overcast
2:50 PM 37.4 °F 27.5 °F 30.2 °F 75% 29.73 in 7.0 mi North 18.4 mph 24.2 mph N/A   Overcast
3:50 PM 37.4 °F 28.5 °F 26.6 °F 65% 29.77 in 10.0 mi NW 15.0 mph 26.5 mph N/A   Overcast
4:52 PM 35.6 °F 26.6 °F 23.0 °F 60% 29.82 in 10.0 mi NNW 13.8 mph 32.2 mph N/A   Mostly Cloudy
5:52 PM 32.0 °F 21.6 °F 21.2 °F 64% 29.86 in 10.0 mi NW 15.0 mph 26.5 mph N/A   Scattered Clouds
6:52 PM 30.2 °F 20.2 °F 19.4 °F 64% 29.90 in 10.0 mi NW 12.7 mph 20.7 mph N/A   Clear
7:40 PM 32.0 °F 24.2 °F 19.4 °F 60% 29.92 in 10.0 mi NW 9.2 mph 21.9 mph N/A   Scattered Clouds
8:05 PM 30.2 °F 22.6 °F 19.4 °F 64% 29.93 in 10.0 mi NW 8.1 mph 17.3 mph N/A   Scattered Clouds
8:25 PM 30.2 °F 20.2 °F 17.6 °F 60% 29.93 in 10.0 mi NNW 12.7 mph 18.4 mph N/A   Clear
8:45 PM 30.2 °F 25.4 °F 17.6 °F 60% 29.95 in 10.0 mi North 4.6 mph - N/A   Scattered Clouds
9:05 PM 30.2 °F 23.4 °F 17.6 °F 60% 29.95 in 10.0 mi NW 6.9 mph - N/A   Scattered Clouds
9:25 PM 30.2 °F 25.4 °F 17.6 °F 60% 29.96 in 10.0 mi North 4.6 mph 18.4 mph N/A   Scattered Clouds
9:45 PM 30.2 °F 23.4 °F 17.6 °F 60% 29.97 in 10.0 mi NNW 6.9 mph 18.4 mph N/A   Clear
10:05 PM 30.2 °F 26.7 °F 17.6 °F 60% 29.97 in 10.0 mi WNW 3.5 mph - N/A   Clear
10:25 PM 30.2 °F 24.3 °F 17.6 °F 60% 29.98 in 10.0 mi West 5.8 mph - N/A   Clear
10:45 PM 30.2 °F 23.4 °F 15.8 °F 55% 29.97 in 10.0 mi NW 6.9 mph 16.1 mph N/A   Clear
11:05 PM 30.2 °F 25.4 °F 15.8 °F 55% 29.97 in 10.0 mi NNE 4.6 mph - N/A   Clear
11:25 PM 28.4 °F 20.4 °F 14.0 °F 55% 29.97 in 10.0 mi WNW 8.1 mph 18.4 mph N/A   Clear
11:45 PM 28.4 °F 22.2 °F 14.0 °F 55% 29.97 in 10.0 mi NW 5.8 mph - N/A   Clear